Location: Shenandoah County Park
(38.9356°N, 78.4524°W)
Time: 12:35:45
(UTC-05:00)

Vanguard 2 - All Passes

Search period start: 07 February 2023 00:00
Search period end: 17 February 2023 00:00
Orbit: 553 x 2930 km, 32.9° (Epoch: 06 February)

Date Brightness Start Highest point End Pass type
(mag) Time Alt. Az. Time Alt. Az. Time Alt. Az.
07 Feb - 00:57:27 10° W 01:13:23 62° SSW 01:30:18 10° ESE visible
07 Feb - 03:09:38 10° W 03:24:44 36° SW 03:38:21 10° SSE visible
07 Feb - 05:30:44 10° WSW 05:33:52 11° SW 05:36:54 10° SW visible
07 Feb - 18:49:56 10° SSW 18:57:28 28° SE 19:08:19 10° E visible
07 Feb - 20:55:42 10° WSW 21:06:29 59° SSE 21:22:44 10° E visible
07 Feb - 23:04:13 10° W 23:17:59 70° S 23:35:49 10° ESE visible
08 Feb - 01:14:28 10° W 01:30:13 56° SSW 01:46:47 10° SE visible
08 Feb - 03:27:19 10° W 03:41:09 29° SW 03:53:46 10° SSE visible
08 Feb - 19:05:45 10° SSW 19:13:46 36° SE 19:25:51 10° E visible
08 Feb - 21:12:17 10° WSW 21:23:17 64° SSE 21:39:51 10° E visible
08 Feb - 23:21:05 10° W 23:34:58 68° S 23:52:44 10° ESE visible
09 Feb - 01:31:33 10° W 01:46:58 49° SSW 02:03:05 10° SE visible
09 Feb - 03:45:29 10° W 03:57:28 23° SW 04:08:38 10° S visible
09 Feb - 17:19:44 10° SSE 17:22:48 12° SE 17:26:22 10° ESE daylight
09 Feb - 19:21:52 10° SW 19:30:10 43° SSE 19:43:10 10° E visible
09 Feb - 21:28:58 10° WSW 21:40:08 67° S 21:56:55 10° E visible
09 Feb - 23:37:57 10° W 23:51:53 64° SSW 00:09:30 10° ESE visible
10 Feb - 01:48:45 10° W 02:03:37 42° SSW 02:19:06 10° SSE visible
10 Feb - 04:04:35 10° WSW 04:13:46 17° SW 04:22:30 10° SSW visible
10 Feb - 17:33:56 10° S 17:38:53 18° SE 17:45:25 10° E daylight
10 Feb - 19:38:11 10° SW 19:46:42 50° SSE 20:00:22 10° E visible
10 Feb - 21:45:43 10° WSW 21:57:02 69° S 22:13:57 10° E visible
10 Feb - 23:54:52 10° W 00:08:46 59° SSW 00:26:07 10° SE visible
11 Feb - 02:06:07 10° W 02:20:11 35° SW 02:34:47 10° SSE visible
11 Feb - 04:26:48 10° WSW 04:30:03 11° SW 04:33:16 10° SW visible
11 Feb - 17:49:16 10° SSW 17:55:03 25° SE 18:03:21 10° E daylight
11 Feb - 19:54:38 10° WSW 20:03:20 57° SSE 20:17:30 10° E visible
11 Feb - 22:02:29 10° W 22:13:57 68° S 22:30:55 10° ESE visible
12 Feb - 00:11:50 10° W 00:25:36 53° SSW 00:42:33 10° SE visible
12 Feb - 02:23:49 10° W 02:36:42 28° SW 02:50:01 10° SSE visible
12 Feb - 18:05:05 10° SSW 18:11:19 32° SE 18:20:52 10° E visible
12 Feb - 20:11:13 10° WSW 20:20:04 62° SSE 20:34:35 10° E visible
12 Feb - 22:19:17 10° W 22:30:50 65° S 22:47:48 10° ESE visible
13 Feb - 00:28:52 10° W 00:42:22 46° SSW 00:58:45 10° SE visible
13 Feb - 02:42:03 10° W 02:53:10 21° SW 03:04:36 10° S visible
13 Feb - 18:21:10 10° SW 18:27:43 39° SSE 18:38:08 10° E visible
13 Feb - 20:27:52 10° WSW 20:36:51 65° S 20:51:38 10° E visible
13 Feb - 22:36:07 10° W 22:47:43 61° SSW 23:04:32 10° ESE visible
14 Feb - 00:46:02 10° W 00:59:04 39° SSW 01:14:38 10° SSE night (unlit)
14 Feb - 03:01:25 10° WSW 03:09:36 15° SW 03:17:59 10° SSW visible
14 Feb - 16:33:42 10° SSE 16:36:55 14° SE 16:40:52 10° ESE daylight
14 Feb - 18:37:29 10° SW 18:44:13 47° SSE 18:55:17 10° E visible
14 Feb - 20:44:33 10° WSW 20:53:41 66° S 21:08:37 10° ESE visible
14 Feb - 22:52:58 10° W 23:04:35 55° SSW 23:21:06 10° SE visible
15 Feb - 01:03:26 10° W 01:15:44 32° SSW 01:30:08 10° SSE night (unlit)
15 Feb - 16:48:50 10° S 16:53:07 20° SE 16:58:55 10° E daylight
15 Feb - 18:53:56 10° WSW 19:00:50 53° SSE 19:12:21 10° E visible
15 Feb - 21:01:17 10° W 21:10:32 64° S 21:25:33 10° ESE visible
15 Feb - 23:09:53 10° W 23:21:23 48° SSW 23:37:26 10° SE visible
16 Feb - 01:21:12 10° W 01:32:20 25° SW 01:45:06 10° S night (unlit)
16 Feb - 17:04:35 10° SSW 17:09:24 27° SSE 17:16:24 10° E daylight
16 Feb - 19:10:29 10° WSW 19:17:30 58° SSE 19:29:22 10° E visible
16 Feb - 21:18:02 10° W 21:27:22 60° S 21:42:22 10° ESE visible
16 Feb - 23:26:55 10° W 23:38:10 41° SSW 23:53:30 10° SE visible
